Flag for Germany Weather past 2 weeks in Bamberg, Bavaria, Germany

Now
60 °F

Overcast.


Feels Like: 60 °F
Forecast: 42 / 70 °F
Wind: 1 mph from Northwest

Location: Bamberg


UV Index: 3 (Moderate)

Visibility: 28 mi


Pressure: 29.64 "Hg

Humidity: 55%

Dew point: 44 °F

Location of BambergLocation

Historic Weather in Bamberg

°F

Bamberg temperature yesterday

Maximum temperature yesterday: 66 °F (at 2:00 PM)
Minimum temperature yesterday: 42 °F (at 11:00 PM)
Average temperature yesterday: 55 °F

Past Weeks' High & Low Weather Summary

 TemperatureHumidityPressure
High71 °F (Apr 7, 5:00 PM)100% (Apr 16, 7:00 AM)30.44 "Hg (Apr 16, 7:00 AM)
Low25 °F (Apr 17, 6:00 AM)29% (Apr 17, 3:00 PM)29.64 "Hg (Apr 21, 3:00 PM)
Average49 °F73%30.06 "Hg
* Reported Apr 6 3:00 PM — Apr 21 3:00 PM, Bamberg, Weather by CustomWeather, © 2014

Note: Actual official high and low records may vary slightly from our data, if they occured in-between our weather recording intervals... More about our weather records

Advertising

Historic Weather Conditions — Data for Previous 24 hours

 ConditionsComfort  
Time TempWeatherWind HumidityBarometerVisibility
3:00 PM
Apr 21
60 °FOvercast.1 mph55%29.64 "Hg28 mi
2:00 PM58 °FOvercast.2 mph61%29.65 "Hg22 mi
1:00 PM56 °FOvercast.3 mph63%29.66 "Hg19 mi
12:00 PM54 °FOvercast.7 mph72%29.67 "Hg19 mi
11:00 AM56 °FPartly sunny.5 mph67%29.66 "Hg22 mi
10:00 AM55 °FHaze.1 mph73%29.67 "Hg19 mi
9:00 AM49 °FOvercast.2 mph92%29.69 "Hg8 mi
8:00 AM46 °FOvercast.2 mph95%29.70 "Hg9 mi
7:00 AM41 °FFog.1 mph100%29.71 "Hg4 mi
6:00 AM36 °FFog.1 mph100%29.71 "Hg2 mi
5:00 AM35 °FFog.1 mph100%29.72 "Hg2 mi
4:00 AM37 °FFog.1 mph100%29.72 "Hg2 mi
3:00 AM38 °FFog.1 mph100%29.73 "Hg2 mi
2:00 AM38 °FFog.1 mph100%29.76 "Hg3 mi
1:00 AM39 °FFog.1 mph100%29.77 "Hg2 mi
12:00 AM40 °FFog.1 mph100%29.77 "Hg2 mi
11:00 PM
Apr 20
42 °FFog.1 mph99%29.78 "Hg2 mi
10:00 PM44 °FClear.1 mph99%29.77 "Hg2 mi
9:00 PM47 °FFog.No wind99%29.76 "Hg2 mi
8:00 PM50 °FFog.1 mph95%29.74 "Hg4 mi
7:00 PM55 °FOvercast.2 mph85%29.74 "Hg28 mi
6:00 PM62 °FLight rain. Partly sunny.6 mph50%29.73 "Hg43 mi
5:00 PM62 °FPartly sunny.6 mph51%29.72 "Hg43 mi
4:00 PM66 °FScattered clouds.6 mph36%29.70 "Hg43 mi
Weather by CustomWeather, © 2014

See weather overview